| time (UTC) | temp C | wind direction | speed KPH | gust KPH | rain 1hr cm | rain 24hr cm | rain mn cm | humidity % | barometer mb |
| 20260502231624 | 10 | 90 | 0.0 | 0.0 | 0.00 | 0.00 | 0.00 | 42 | 1020.6 |
| 20260502231121 | 10 | 90 | 0.0 | 0.0 | 0.00 | 0.00 | 0.00 | 42 | 1020.5 |
| 20260502230619 | 10 | 90 | 0.0 | 0.0 | 0.00 | 0.00 | 0.00 | 42 | 1020.6 |
| 20260502230117 | 11 | 90 | 0.0 | 0.0 | 0.00 | 0.00 | 0.00 | 41 | 1020.6 |
| 20260502225614 | 11 | 90 | 0.0 | 0.0 | 0.00 | 0.00 | 0.00 | 41 | 1020.7 |
| 20260502224609 | 11 | 90 | 0.0 | 0.0 | 0.00 | 0.00 | 0.00 | 40 | 1020.7 |
| 20260502224107 | 11 | 90 | 0.0 | 0.0 | 0.00 | 0.00 | 0.00 | 40 | 1020.7 |
| 20260502223604 | 11 | 90 | 0.0 | 0.0 | 0.00 | 0.00 | 0.00 | 40 | 1020.8 |
| 20260502223102 | 11 | 90 | 0.0 | 0.0 | 0.00 | 0.00 | 0.00 | 39 | 1020.8 |
| 20260502222600 | 11 | 90 | 0.0 | 0.0 | 0.00 | 0.00 | 0.00 | 39 | 1020.8 |
| 20260502222057 | 12 | 90 | 0.0 | 29.0 | 0.00 | 0.00 | 0.00 | 39 | 1020.8 |
| 20260502221555 | 12 | 90 | 0.0 | 0.0 | 0.00 | 0.00 | 0.00 | 39 | 1020.8 |
| 20260502221052 | 12 | 90 | 0.0 | 0.0 | 0.00 | 0.00 | 0.00 | 38 | 1020.9 |
| 20260502220550 | 12 | 90 | 0.0 | 19.3 | 0.00 | 0.00 | 0.00 | 38 | 1020.8 |
| 20260502220048 | 12 | 90 | 0.0 | 0.0 | 0.00 | 0.00 | 0.00 | 38 | 1020.8 |
| 20260502215545 | 12 | 90 | 0.0 | 0.0 | 0.00 | 0.00 | 0.00 | 37 | 1020.9 |
| 20260502215043 | 12 | 90 | 0.0 | 0.0 | 0.00 | 0.00 | 0.00 | 37 | 1020.9 |
| 20260502214540 | 12 | 90 | 0.0 | 0.0 | 0.00 | 0.00 | 0.00 | 37 | 1020.9 |
| 20260502214038 | 12 | 90 | 0.0 | 0.0 | 0.00 | 0.00 | 0.00 | 36 | 1021.0 |
| 20260502213536 | 12 | 90 | 0.0 | 0.0 | 0.00 | 0.00 | 0.00 | 36 | 1021.0 |
| 20260502213033 | 12 | 90 | 0.0 | 0.0 | 0.00 | 0.00 | 0.00 | 36 | 1021.0 |
| 20260502212531 | 13 | 90 | 0.0 | 0.0 | 0.00 | 0.00 | 0.00 | 35 | 1021.1 |
| 20260502212028 | 13 | 90 | 0.0 | 0.0 | 0.00 | 0.00 | 0.00 | 35 | 1021.0 |
| 20260502211526 | 13 | 90 | 0.0 | 0.0 | 0.00 | 0.00 | 0.00 | 35 | 1021.1 |
| 20260502211023 | 13 | 90 | 0.0 | 0.0 | 0.00 | 0.00 | 0.00 | 34 | 1021.1 |
| 20260502210521 | 13 | 90 | 0.0 | 0.0 | 0.00 | 0.00 | 0.00 | 34 | 1021.2 |
| 20260502210019 | 13 | 90 | 0.0 | 0.0 | 0.00 | 0.00 | 0.00 | 34 | 1021.2 |
| 20260502205516 | 13 | 90 | 0.0 | 3.2 | 0.00 | 0.00 | 0.00 | 33 | 1021.3 |
| 20260502205014 | 13 | 90 | 0.0 | 0.0 | 0.00 | 0.00 | 0.00 | 33 | 1021.4 |
| 20260502204511 | 14 | 90 | 0.0 | 0.0 | 0.00 | 0.00 | 0.00 | 33 | 1021.4 |
| 20260502204009 | 14 | 90 | 0.0 | 0.0 | 0.00 | 0.00 | 0.00 | 32 | 1021.4 |
| 20260502203507 | 14 | 90 | 0.0 | 0.0 | 0.00 | 0.00 | 0.00 | 32 | 1021.5 |
| 20260502203004 | 15 | 90 | 0.0 | 0.0 | 0.00 | 0.00 | 0.00 | 31 | 1021.5 |
| 20260502202502 | 15 | 90 | 0.0 | 0.0 | 0.00 | 0.00 | 0.00 | 31 | 1021.5 |
| 20260502201959 | 15 | 90 | 0.0 | 0.0 | 0.00 | 0.00 | 0.00 | 30 | 1021.6 |
| 20260502200955 | 16 | 90 | 0.0 | 0.0 | 0.00 | 0.00 | 0.00 | 30 | 1021.6 |
| 20260502200452 | 16 | 90 | 0.0 | 0.0 | 0.00 | 0.00 | 0.00 | 30 | 1021.5 |
| 20260502195950 | 16 | 90 | 0.0 | 0.0 | 0.00 | 0.00 | 0.00 | 29 | 1021.6 |
| 20260502195447 | 16 | 90 | 0.0 | 0.0 | 0.00 | 0.00 | 0.00 | 29 | 1021.5 |
| 20260502194945 | 16 | 90 | 0.0 | 0.0 | 0.00 | 0.00 | 0.00 | 28 | 1021.6 |
| 20260502194443 | 16 | 90 | 0.0 | 0.0 | 0.00 | 0.00 | 0.00 | 28 | 1021.6 |
| 20260502193940 | 16 | 90 | 0.0 | 0.0 | 0.00 | 0.00 | 0.00 | 27 | 1021.5 |
| 20260502193438 | 17 | 90 | 0.0 | 0.0 | 0.00 | 0.00 | 0.00 | 27 | 1021.6 |
| 20260502192935 | 17 | 90 | 0.0 | 0.0 | 0.00 | 0.00 | 0.00 | 27 | 1021.6 |
| 20260502192433 | 17 | 90 | 0.0 | 0.0 | 0.00 | 0.00 | 0.00 | 26 | 1021.5 |
| 20260502191930 | 17 | 90 | 0.0 | 0.0 | 0.00 | 0.00 | 0.00 | 26 | 1021.5 |
| 20260502191428 | 17 | 90 | 0.0 | 0.0 | 0.00 | 0.00 | 0.00 | 25 | 1021.5 |
| 20260502190926 | 17 | 90 | 0.0 | 0.0 | 0.00 | 0.00 | 0.00 | 25 | 1021.5 |
| 20260502190423 | 18 | 90 | 0.0 | 0.0 | 0.00 | 0.00 | 0.00 | 25 | 1021.4 |
| 20260502185921 | 18 | 90 | 0.0 | 0.0 | 0.00 | 0.00 | 0.00 | 24 | 1021.5 |
| 20260502185418 | 18 | 90 | 0.0 | 0.0 | 0.00 | 0.00 | 0.00 | 24 | 1021.5 |
| 20260502184916 | 18 | 90 | 0.0 | 0.0 | 0.00 | 0.00 | 0.00 | 23 | 1021.4 |
| 20260502184414 | 18 | 90 | 0.0 | 0.0 | 0.00 | 0.00 | 0.00 | 23 | 1021.3 |
| 20260502183911 | 19 | 90 | 0.0 | 0.0 | 0.00 | 0.00 | 0.00 | 22 | 1021.3 |
| 20260502183409 | 20 | 90 | 0.0 | 0.0 | 0.00 | 0.00 | 0.00 | 22 | 1021.2 |
| 20260502182906 | 20 | 90 | 0.0 | 0.0 | 0.00 | 0.00 | 0.00 | 21 | 1021.2 |
| 20260502182404 | 20 | 90 | 0.0 | 0.0 | 0.00 | 0.00 | 0.00 | 21 | 1021.1 |
| 20260502181902 | 21 | 90 | 0.0 | 0.0 | 0.00 | 0.00 | 0.00 | 20 | 1021.1 |
| 20260502181359 | 21 | 90 | 0.0 | 0.0 | 0.00 | 0.00 | 0.00 | 20 | 1021.0 |
| 20260502180857 | 22 | 90 | 0.0 | 1.6 | 0.00 | 0.00 | 0.00 | 19 | 1021.0 |
| 20260502180354 | 22 | 90 | 0.0 | 1.6 | 0.00 | 0.00 | 0.00 | 19 | 1021.0 |
| 20260502170325 | 32 | 45 | 0.0 | 17.7 | 0.00 | 0.00 | 0.00 | 16 | 1021.1 |
| 20260502164316 | 33 | 45 | 1.6 | 6.4 | 0.00 | 0.00 | 0.00 | 15 | 1021.3 |
| 20260502163813 | 34 | 45 | 0.0 | 4.8 | 0.00 | 0.00 | 0.00 | 15 | 1021.4 |
| 20260502162808 | 33 | 0 | 0.0 | 16.1 | 0.00 | 0.00 | 0.00 | 15 | 1021.5 |
| 20260502162306 | 32 | 0 | 3.2 | 27.4 | 0.00 | 0.00 | 0.00 | 15 | 1021.5 |
| 20260502161804 | 33 | 45 | 0.0 | 20.9 | 0.00 | 0.00 | 0.00 | 15 | 1021.5 |
| 20260502161301 | 33 | 90 | 4.8 | 14.5 | 0.00 | 0.00 | 0.00 | 14 | 1021.5 |
| 20260502160759 | 33 | 45 | 1.6 | 27.4 | 0.00 | 0.00 | 0.00 | 15 | 1021.5 |
| 20260502152237 | 35 | 45 | 0.0 | 27.4 | 0.00 | 0.00 | 0.00 | 15 | 1022.1 |
| 20260502151735 | 35 | 45 | 1.6 | 14.5 | 0.00 | 0.00 | 0.00 | 14 | 1022.1 |
| 20260502151232 | 35 | 45 | 1.6 | 12.9 | 0.00 | 0.00 | 0.00 | 14 | 1022.3 |
| 20260502150730 | 35 | 0 | 1.6 | 9.7 | 0.00 | 0.00 | 0.00 | 15 | 1022.3 |
| 20260502150227 | 35 | 90 | 1.6 | 24.1 | 0.00 | 0.00 | 0.00 | 15 | 1022.3 |
| 20260502130632 | 35 | 0 | 1.6 | 6.4 | 0.00 | 0.00 | 0.00 | 17 | 1023.8 |
| 20260502130129 | 34 | 180 | 0.0 | 22.5 | 0.00 | 0.00 | 0.00 | 18 | 1023.8 |
| 20260502123617 | 33 | 45 | 17.7 | 27.4 | 0.00 | 0.00 | 0.00 | 18 | 1024.2 |
| 20260502123115 | 33 | 3.2 | 27.4 | 0.00 | 0.00 | 0.00 | 18 | 1024.3 | |
| 20260502122111 | 32 | 0 | 0.0 | 25.7 | 0.00 | 0.00 | 0.00 | 19 | 1024.4 |
| 20260502121608 | 33 | 45 | 1.6 | 11.3 | 0.00 | 0.00 | 0.00 | 19 | 1024.5 |
| 20260502121105 | 34 | 45 | 1.6 | 16.1 | 0.00 | 0.00 | 0.00 | 19 | 1024.5 |
| 20260502120603 | 34 | 0 | 0.0 | 22.5 | 0.00 | 0.00 | 0.00 | 20 | 1024.6 |
| 20260502115558 | 32 | 0 | 1.6 | 3.2 | 0.00 | 0.00 | 0.00 | 21 | 1024.7 |
| 20260502115056 | 32 | 45 | 0.0 | 25.7 | 0.00 | 0.00 | 0.00 | 21 | 1024.7 |
| 20260502114553 | 32 | 0 | 1.6 | 20.9 | 0.00 | 0.00 | 0.00 | 21 | 1024.8 |
| 20260502114051 | 33 | 45 | 0.0 | 25.7 | 0.00 | 0.00 | 0.00 | 22 | 1025.0 |
| 20260502113548 | 33 | 0 | 0.0 | 8.0 | 0.00 | 0.00 | 0.00 | 22 | 1025.0 |
| 20260502113046 | 32 | 0 | 0.0 | 24.1 | 0.00 | 0.00 | 0.00 | 22 | 1025.1 |
| 20260502112544 | 32 | 180 | 0.0 | 24.1 | 0.00 | 0.00 | 0.00 | 22 | 1025.2 |
| 20260502112041 | 32 | 45 | 0.0 | 19.3 | 0.00 | 0.00 | 0.00 | 23 | 1025.3 |
| 20260502111539 | 31 | 90 | 0.0 | 19.3 | 0.00 | 0.00 | 0.00 | 24 | 1025.3 |
| 20260502111036 | 31 | 45 | 1.6 | 24.1 | 0.00 | 0.00 | 0.00 | 23 | 1025.4 |
| 20260502110534 | 31 | 0 | 1.6 | 6.4 | 0.00 | 0.00 | 0.00 | 24 | 1025.4 |
| 20260502110032 | 31 | 45 | 1.6 | 27.4 | 0.00 | 0.00 | 0.00 | 24 | 1025.4 |
| 20260502105529 | 31 | 0 | 0.0 | 24.1 | 0.00 | 0.00 | 0.00 | 25 | 1025.5 |
| 20260502105027 | 30 | 225 | 0.0 | 8.0 | 0.00 | 0.00 | 0.00 | 25 | 1025.5 |
| 20260502104524 | 30 | 315 | 24.1 | 25.7 | 0.00 | 0.00 | 0.00 | 26 | 1025.7 |
| 20260502104022 | 30 | 0 | 3.2 | 22.5 | 0.00 | 0.00 | 0.00 | 26 | 1025.8 |
| 20260502103519 | 30 | 225 | 0.0 | 11.3 | 0.00 | 0.00 | 0.00 | 25 | 1025.8 |
| 20260502103017 | 30 | 180 | 0.0 | 12.9 | 0.00 | 0.00 | 0.00 | 26 | 1025.8 |
| 20260502102515 | 30 | 225 | 1.6 | 25.7 | 0.00 | 0.00 | 0.00 | 27 | 1025.9 |
| 20260502102012 | 30 | 0.0 | 4.8 | 0.00 | 0.00 | 0.00 | 27 | 1026.0 | |
| 20260502101510 | 30 | 270 | 0.0 | 29.0 | 0.00 | 0.00 | 0.00 | 28 | 1026.0 |
| 20260502101007 | 30 | 45 | 1.6 | 3.2 | 0.00 | 0.00 | 0.00 | 28 | 1026.1 |
| 20260502100505 | 30 | 45 | 0.0 | 29.0 | 0.00 | 0.00 | 0.00 | 28 | 1026.1 |
| 20260502091441 | 28 | 0 | 0.0 | 33.8 | 0.00 | 0.00 | 0.00 | 35 | 1026.7 |
| 20260502090938 | 27 | 45 | 1.6 | 20.9 | 0.00 | 0.00 | 0.00 | 34 | 1026.7 |
| 20260502090436 | 28 | 0 | 0.0 | 35.4 | 0.00 | 0.00 | 0.00 | 34 | 1026.8 |
| 20260502071343 | 18 | 270 | 0.0 | 3.2 | 0.00 | 0.00 | 0.00 | 47 | 1027.5 |
| 20260502070840 | 18 | 225 | 0.0 | 32.2 | 0.00 | 0.00 | 0.00 | 47 | 1027.5 |
| 20260502070338 | 18 | 180 | 0.0 | 32.2 | 0.00 | 0.00 | 0.00 | 47 | 1027.5 |
| 20260502065333 | 18 | 0 | 0.0 | 29.0 | 0.00 | 0.00 | 0.00 | 48 | 1027.5 |
| 20260502064831 | 18 | 45 | 0.0 | 19.3 | 0.00 | 0.00 | 0.00 | 48 | 1027.5 |
| 20260502064328 | 18 | 225 | 0.0 | 4.8 | 0.00 | 0.00 | 0.00 | 49 | 1027.5 |
| 20260502063826 | 18 | 135 | 0.0 | 1.6 | 0.00 | 0.00 | 0.00 | 49 | 1027.5 |
| 20260502062821 | 18 | 135 | 0.0 | 0.0 | 0.00 | 0.00 | 0.00 | 50 | 1027.5 |
| 20260502062319 | 18 | 135 | 0.0 | 29.0 | 0.00 | 0.00 | 0.00 | 50 | 1027.6 |
| 20260502061816 | 18 | 135 | 0.0 | 33.8 | 0.00 | 0.00 | 0.00 | 51 | 1027.5 |
| 20260502061314 | 17 | 135 | 0.0 | 0.0 | 0.00 | 0.00 | 0.00 | 51 | 1027.5 |
| 20260502060812 | 17 | 135 | 0.0 | 20.9 | 0.00 | 0.00 | 0.00 | 51 | 1027.6 |
| 20260502060309 | 16 | 180 | 0.0 | 17.7 | 0.00 | 0.00 | 0.00 | 51 | 1027.5 |
| 20260502055807 | 16 | 180 | 0.0 | 0.0 | 0.00 | 0.00 | 0.00 | 52 | 1027.5 |
| 20260502055306 | 16 | 180 | 0.0 | 0.0 | 0.00 | 0.00 | 0.00 | 52 | 1027.5 |
| 20260502054802 | 15 | 180 | 0.0 | 0.0 | 0.00 | 0.00 | 0.00 | 52 | 1027.6 |
| 20260502054259 | 15 | 180 | 0.0 | 25.7 | 0.00 | 0.00 | 0.00 | 52 | 1027.6 |
| 20260502053255 | 15 | 180 | 0.0 | 0.0 | 0.00 | 0.00 | 0.00 | 53 | 1027.6 |
| 20260502052752 | 14 | 180 | 0.0 | 0.0 | 0.00 | 0.00 | 0.00 | 53 | 1027.6 |
| 20260502052250 | 13 | 180 | 0.0 | 0.0 | 0.00 | 0.00 | 0.00 | 53 | 1027.6 |
| 20260502051747 | 13 | 180 | 0.0 | 0.0 | 0.00 | 0.00 | 0.00 | 53 | 1027.6 |
| 20260502051245 | 12 | 180 | 0.0 | 0.0 | 0.00 | 0.00 | 0.00 | 53 | 1027.7 |
| 20260502050743 | 12 | 180 | 0.0 | 0.0 | 0.00 | 0.00 | 0.00 | 54 | 1027.7 |
| 20260502050240 | 12 | 180 | 0.0 | 0.0 | 0.00 | 0.00 | 0.00 | 54 | 1027.6 |
| 20260502045738 | 11 | 180 | 0.0 | 0.0 | 0.00 | 0.00 | 0.00 | 54 | 1027.6 |
| 20260502045235 | 11 | 180 | 0.0 | 0.0 | 0.00 | 0.00 | 0.00 | 54 | 1027.5 |
| 20260502044733 | 11 | 180 | 0.0 | 0.0 | 0.00 | 0.00 | 0.00 | 54 | 1027.5 |
| 20260502044231 | 10 | 180 | 0.0 | 0.0 | 0.00 | 0.00 | 0.00 | 54 | 1027.5 |
| 20260502043728 | 10 | 180 | 0.0 | 0.0 | 0.00 | 0.00 | 0.00 | 54 | 1027.5 |
| 20260502043226 | 10 | 180 | 0.0 | 0.0 | 0.00 | 0.00 | 0.00 | 54 | 1027.5 |
| 20260502042723 | 9 | 180 | 0.0 | 0.0 | 0.00 | 0.00 | 0.00 | 54 | 1027.5 |
| 20260502042221 | 9 | 180 | 0.0 | 0.0 | 0.00 | 0.00 | 0.00 | 54 | 1027.5 |
| 20260502041719 | 8 | 180 | 0.0 | 0.0 | 0.00 | 0.00 | 0.00 | 54 | 1027.6 |
| 20260502041216 | 8 | 180 | 0.0 | 0.0 | 0.00 | 0.00 | 0.00 | 54 | 1027.5 |
| 20260502040714 | 8 | 180 | 0.0 | 0.0 | 0.00 | 0.00 | 0.00 | 54 | 1027.5 |
| 20260502040211 | 7 | 180 | 0.0 | 0.0 | 0.00 | 0.00 | 0.00 | 54 | 1027.5 |
| 20260502035709 | 7 | 180 | 0.0 | 0.0 | 0.00 | 0.00 | 0.00 | 54 | 1027.4 |
| 20260502035206 | 7 | 180 | 0.0 | 0.0 | 0.00 | 0.00 | 0.00 | 53 | 1027.4 |
| 20260502034704 | 7 | 180 | 0.0 | 1.6 | 0.00 | 0.00 | 0.00 | 54 | 1027.3 |
| 20260502034202 | 7 | 180 | 0.0 | 0.0 | 0.00 | 0.00 | 0.00 | 53 | 1027.4 |
| 20260502033659 | 7 | 180 | 0.0 | 0.0 | 0.00 | 0.00 | 0.00 | 53 | 1027.3 |
| 20260502033157 | 7 | 180 | 0.0 | 0.0 | 0.00 | 0.00 | 0.00 | 53 | 1027.2 |
| 20260502032654 | 7 | 180 | 0.0 | 0.0 | 0.00 | 0.00 | 0.00 | 53 | 1027.2 |
| 20260502032152 | 8 | 180 | 0.0 | 1.6 | 0.00 | 0.00 | 0.00 | 53 | 1027.3 |
| 20260502031650 | 8 | 180 | 0.0 | 0.0 | 0.00 | 0.00 | 0.00 | 53 | 1027.2 |
| 20260502031147 | 7 | 180 | 0.0 | 1.6 | 0.00 | 0.00 | 0.00 | 53 | 1027.2 |
| 20260502030645 | 7 | 180 | 0.0 | 0.0 | 0.00 | 0.00 | 0.00 | 52 | 1027.2 |
| 20260502030142 | 7 | 180 | 0.0 | 0.0 | 0.00 | 0.00 | 0.00 | 52 | 1027.2 |
| 20260502025640 | 7 | 225 | 0.0 | 0.0 | 0.00 | 0.00 | 0.00 | 52 | 1027.2 |
| 20260502025138 | 7 | 180 | 0.0 | 0.0 | 0.00 | 0.00 | 0.00 | 52 | 1027.2 |
| 20260502024635 | 7 | 180 | 0.0 | 0.0 | 0.00 | 0.00 | 0.00 | 52 | 1027.2 |
| 20260502024133 | 8 | 180 | 0.0 | 0.0 | 0.00 | 0.00 | 0.00 | 52 | 1027.3 |
| 20260502023630 | 8 | 180 | 0.0 | 0.0 | 0.00 | 0.00 | 0.00 | 52 | 1027.3 |
| 20260502023128 | 8 | 180 | 0.0 | 0.0 | 0.00 | 0.00 | 0.00 | 51 | 1027.3 |
| 20260502022625 | 8 | 180 | 0.0 | 32.2 | 0.00 | 0.00 | 0.00 | 51 | 1027.3 |
| 20260502022123 | 8 | 180 | 0.0 | 0.0 | 0.00 | 0.00 | 0.00 | 51 | 1027.3 |
| 20260502021621 | 8 | 180 | 0.0 | 1.6 | 0.00 | 0.00 | 0.00 | 51 | 1027.3 |
| 20260502021118 | 8 | 180 | 0.0 | 19.3 | 0.00 | 0.00 | 0.00 | 51 | 1027.3 |
| 20260502020616 | 8 | 180 | 0.0 | 25.7 | 0.00 | 0.00 | 0.00 | 51 | 1027.3 |
| 20260502020113 | 8 | 180 | 0.0 | 0.0 | 0.00 | 0.00 | 0.00 | 51 | 1027.3 |
| 20260502015611 | 8 | 180 | 0.0 | 8.0 | 0.00 | 0.00 | 0.00 | 51 | 1027.3 |
| 20260502015109 | 8 | 180 | 0.0 | 30.6 | 0.00 | 0.00 | 0.00 | 50 | 1027.3 |
| 20260502014606 | 8 | 180 | 0.0 | 1.6 | 0.00 | 0.00 | 0.00 | 50 | 1027.4 |
| 20260502014104 | 8 | 180 | 0.0 | 1.6 | 0.00 | 0.00 | 0.00 | 50 | 1027.3 |
| 20260502013601 | 8 | 180 | 0.0 | 0.0 | 0.00 | 0.00 | 0.00 | 50 | 1027.4 |
| 20260502013059 | 8 | 180 | 0.0 | 33.8 | 0.00 | 0.00 | 0.00 | 50 | 1027.3 |
| 20260502012557 | 9 | 180 | 0.0 | 1.6 | 0.00 | 0.00 | 0.00 | 49 | 1027.3 |
| 20260502012054 | 9 | 180 | 0.0 | 16.1 | 0.00 | 0.00 | 0.00 | 49 | 1027.3 |
| 20260502011552 | 9 | 180 | 0.0 | 6.4 | 0.00 | 0.00 | 0.00 | 49 | 1027.4 |
| 20260502011049 | 9 | 180 | 0.0 | 0.0 | 0.00 | 0.00 | 0.00 | 49 | 1027.4 |
| 20260502010547 | 9 | 180 | 0.0 | 25.7 | 0.00 | 0.00 | 0.00 | 49 | 1027.5 |
| 20260502010045 | 9 | 180 | 0.0 | 9.7 | 0.00 | 0.00 | 0.00 | 49 | 1027.5 |
| 20260502005542 | 9 | 180 | 0.0 | 1.6 | 0.00 | 0.00 | 0.00 | 49 | 1027.5 |
| 20260502005040 | 9 | 180 | 0.0 | 1.6 | 0.00 | 0.00 | 0.00 | 49 | 1027.5 |
| 20260502004537 | 9 | 180 | 0.0 | 1.6 | 0.00 | 0.00 | 0.00 | 48 | 1027.5 |
| 20260502004035 | 9 | 180 | 0.0 | 1.6 | 0.00 | 0.00 | 0.00 | 48 | 1027.5 |
| 20260502003532 | 9 | 180 | 0.0 | 0.0 | 0.00 | 0.00 | 0.00 | 48 | 1027.5 |
| 20260502003030 | 9 | 180 | 0.0 | 20.9 | 0.00 | 0.00 | 0.00 | 48 | 1027.5 |
| 20260502002528 | 9 | 180 | 0.0 | 0.0 | 0.00 | 0.00 | 0.00 | 48 | 1027.5 |
| 20260502002025 | 9 | 180 | 0.0 | 0.0 | 0.00 | 0.00 | 0.00 | 47 | 1027.5 |
| 20260502001523 | 10 | 180 | 0.0 | 0.0 | 0.00 | 0.00 | 0.00 | 47 | 1027.5 |
| 20260502001020 | 10 | 180 | 0.0 | 0.0 | 0.00 | 0.00 | 0.00 | 47 | 1027.5 |
| 20260502000518 | 10 | 180 | 0.0 | 1.6 | 0.00 | 0.00 | 0.00 | 47 | 1027.6 |
| 20260502000016 | 10 | 180 | 0.0 | 0.0 | 0.00 | 0.00 | 0.00 | 47 | 1027.6 |
| 20260501235513 | 10 | 180 | 0.0 | 0.0 | 0.00 | 0.00 | 0.00 | 47 | 1027.6 |
| 20260501235011 | 10 | 180 | 0.0 | 1.6 | 0.00 | 0.00 | 0.00 | 47 | 1027.5 |
| 20260501234508 | 10 | 180 | 0.0 | 1.6 | 0.00 | 0.00 | 0.00 | 46 | 1027.6 |
| 20260501234006 | 10 | 180 | 0.0 | 0.0 | 0.00 | 0.00 | 0.00 | 46 | 1027.6 |
| 20260501233503 | 10 | 180 | 0.0 | 0.0 | 0.00 | 0.00 | 0.00 | 46 | 1027.6 |
| 20260501233001 | 10 | 180 | 0.0 | 0.0 | 0.00 | 0.00 | 0.00 | 46 | 1027.7 |
| 20260501232459 | 10 | 180 | 0.0 | 0.0 | 0.00 | 0.00 | 0.00 | 45 | 1027.7 |